Hourly Weather Homokkomárom

Today, 16 April, Friday

Time Temperature Precipitation Wind Pressure Humidity
00:00 +2°C° 0 mm 1 mps 742 mmHg 68%
01:00 +2°C° 0 mm 1 mps 742 mmHg 71%
02:00 +1°C° 0 mm 1 mps 742 mmHg 74%
03:00 +1°C° 0 mm 1 mps 742 mmHg 77%
04:00 0°C° 0 mm 1 mps 742 mmHg 79%
05:00 +1°C° 0 mm 1 mps 742 mmHg 75%
06:00 +2°C° 0 mm 1 mps 742 mmHg 71%
07:00 +3°C° 0 mm 1 mps 743 mmHg 68%
08:00 +5°C° 0 mm 1 mps 743 mmHg 61%
09:00 +7°C° 0 mm 1 mps 743 mmHg 55%
10:00 +9°C° 0 mm 1 mps 743 mmHg 49%
11:00 +9°C° 0 mm 1 mps 742 mmHg 45%
12:00 +10°C° 0 mm 1 mps 742 mmHg 42%
13:00 +11°C° 0 mm 1 mps 742 mmHg 39%
14:00 +11°C° 0 mm 1 mps 741 mmHg 39%
15:00 +10°C° 0 mm 2 mps 741 mmHg 39%
16:00 +10°C° 0 mm 2 mps 741 mmHg 40%
17:00 +9°C° 0 mm 2 mps 741 mmHg 47%
18:00 +7°C° 0 mm 2 mps 741 mmHg 54%
19:00 +5°C° 0 mm 2 mps 741 mmHg 61%
20:00 +5°C° 0 mm 2 mps 741 mmHg 65%
21:00 +4°C° 0 mm 2 mps 741 mmHg 69%
22:00 +3°C° 0 mm 2 mps 741 mmHg 72%
23:00 +4°C° 0 mm 1 mps 741 mmHg 75%

Tomorrow, 17 April, Saturday

Time Temperature Precipitation Wind Pressure Humidity
00:00 +4°C° 0 mm 1 mps 741 mmHg 77%
01:00 +3°C° 0 mm 1 mps 741 mmHg 79%
02:00 +3°C° 0 mm 1 mps 741 mmHg 82%
03:00 +2°C° 0 mm 1 mps 741 mmHg 86%
04:00 +1°C° 0 mm 2 mps 741 mmHg 89%
05:00 +2°C° 0 mm 2 mps 741 mmHg 86%
06:00 +2°C° 0 mm 3 mps 741 mmHg 82%
07:00 +2°C° 0 mm 3 mps 741 mmHg 79%
08:00 +4°C° 0 mm 4 mps 741 mmHg 74%
09:00 +5°C° 0 mm 4 mps 741 mmHg 68%
10:00 +6°C° 0 mm 4 mps 740 mmHg 63%
11:00 +7°C° 0 mm 4 mps 740 mmHg 62%
12:00 +7°C° 0 mm 4 mps 740 mmHg 62%
13:00 +7°C° 0 mm 4 mps 739 mmHg 62%
14:00 +7°C° 0 mm 4 mps 739 mmHg 63%
15:00 +7°C° 0 mm 4 mps 739 mmHg 64%
16:00 +8°C° 0 mm 3 mps 739 mmHg 66%
17:00 +7°C° 0 mm 3 mps 739 mmHg 68%
18:00 +7°C° 0 mm 3 mps 739 mmHg 70%
19:00 +7°C° 0 mm 2 mps 739 mmHg 71%
20:00 +7°C° 0 mm 3 mps 739 mmHg 72%
21:00 +5°C° 0 mm 3 mps 739 mmHg 72%
22:00 +5°C° 0 mm 3 mps 739 mmHg 73%
23:00 +5°C° 0 mm 4 mps 739 mmHg 73%

Day after tomorrow, 18 April, Sunday

Time Temperature Precipitation Wind Pressure Humidity
00:00 +5°C° 0 mm 4 mps 738 mmHg 73%
01:00 +5°C° 0 mm 4 mps 738 mmHg 74%
02:00 +5°C° 0 mm 4 mps 738 mmHg 75%
03:00 +5°C° 0 mm 4 mps 738 mmHg 76%
04:00 +4°C° 0 mm 4 mps 738 mmHg 78%
05:00 +4°C° 0.2 mm 4 mps 738 mmHg 81%
06:00 +4°C° 0.2 mm 4 mps 738 mmHg 84%
07:00 +4°C° 0.2 mm 4 mps 738 mmHg 86%
08:00 +5°C° 0.3 mm 4 mps 738 mmHg 85%
09:00 +5°C° 0.3 mm 4 mps 738 mmHg 83%
10:00 +6°C° 0.3 mm 4 mps 738 mmHg 81%
11:00 +6°C° 0.3 mm 4 mps 738 mmHg 81%
12:00 +6°C° 0.3 mm 4 mps 738 mmHg 81%
13:00 +6°C° 0.3 mm 4 mps 738 mmHg 81%
14:00 +7°C° 0.3 mm 3 mps 738 mmHg 83%
15:00 +7°C° 0.3 mm 3 mps 738 mmHg 84%
16:00 +7°C° 0.3 mm 2 mps 738 mmHg 85%
17:00 +7°C° 0.3 mm 2 mps 738 mmHg 87%
18:00 +6°C° 0.3 mm 2 mps 738 mmHg 89%
19:00 +6°C° 0.3 mm 2 mps 738 mmHg 91%
20:00 +6°C° 0.6 mm 2 mps 738 mmHg 92%
21:00 +7°C° 0.6 mm 1 mps 738 mmHg 93%
22:00 +6°C° 0.6 mm 1 mps 738 mmHg 94%
23:00 +5°C° 0.7 mm 2 mps 738 mmHg 93%

19 April, Monday

Time Temperature Precipitation Wind Pressure Humidity
00:00 +5°C° 0.7 mm 2 mps 738 mmHg 93%
01:00 +4°C° 0.7 mm 3 mps 737 mmHg 93%
02:00 +4°C° 0.9 mm 3 mps 737 mmHg 93%
03:00 +4°C° 0.9 mm 4 mps 737 mmHg 93%
04:00 +4°C° 0.9 mm 4 mps 737 mmHg 93%
05:00 +4°C° 0.7 mm 4 mps 737 mmHg 92%
06:00 +4°C° 0.7 mm 3 mps 737 mmHg 92%
07:00 +4°C° 0.7 mm 3 mps 737 mmHg 92%
08:00 +5°C° 0.2 mm 4 mps 736 mmHg 87%
09:00 +7°C° 0.2 mm 4 mps 736 mmHg 82%
10:00 +8°C° 0.2 mm 4 mps 736 mmHg 77%
11:00 +7°C° 0.4 mm 4 mps 736 mmHg 81%
12:00 +6°C° 0.4 mm 4 mps 736 mmHg 85%
13:00 +6°C° 0.4 mm 4 mps 736 mmHg 90%
14:00 +7°C° 0.5 mm 3 mps 736 mmHg 91%
15:00 +7°C° 0.5 mm 2 mps 735 mmHg 92%
16:00 +7°C° 0.5 mm 2 mps 735 mmHg 93%
17:00 +7°C° 0.5 mm 2 mps 735 mmHg 93%
18:00 +7°C° 0.5 mm 2 mps 735 mmHg 93%
19:00 +7°C° 0.5 mm 2 mps 736 mmHg 93%
20:00 +6°C° 0.1 mm 2 mps 736 mmHg 92%
21:00 +7°C° 0.1 mm 1 mps 736 mmHg 92%
22:00 +7°C° 0.1 mm 1 mps 736 mmHg 91%
23:00 +6°C° 0.3 mm 2 mps 736 mmHg 92%

20 April, Tuesday

Time Temperature Precipitation Wind Pressure Humidity
00:00 +6°C° 0.3 mm 2 mps 735 mmHg 93%
01:00 +5°C° 0.3 mm 3 mps 735 mmHg 94%
02:00 +5°C° 0.2 mm 3 mps 735 mmHg 94%
03:00 +6°C° 0.2 mm 2 mps 735 mmHg 93%
04:00 +6°C° 0.2 mm 2 mps 735 mmHg 92%
05:00 +6°C° 0 mm 2 mps 736 mmHg 90%
06:00 +7°C° 0 mm 2 mps 736 mmHg 87%
07:00 +7°C° 0 mm 2 mps 736 mmHg 84%
08:00 +9°C° 0.1 mm 3 mps 736 mmHg 77%
09:00 +10°C° 0.1 mm 3 mps 736 mmHg 70%
10:00 +12°C° 0.1 mm 3 mps 736 mmHg 63%
11:00 +14°C° 0.2 mm 2 mps 736 mmHg 60%
12:00 +14°C° 0.2 mm 2 mps 736 mmHg 57%
13:00 +15°C° 0.2 mm 2 mps 736 mmHg 55%
14:00 +15°C° 0.2 mm 2 mps 736 mmHg 55%
15:00 +15°C° 0.2 mm 2 mps 735 mmHg 56%
16:00 +15°C° 0.2 mm 2 mps 735 mmHg 56%
17:00 +13°C° 0.4 mm 1 mps 735 mmHg 64%
18:00 +12°C° 0.4 mm 1 mps 735 mmHg 71%
19:00 +10°C° 0.4 mm 1 mps 735 mmHg 79%
20:00 +10°C° 0.1 mm 1 mps 735 mmHg 81%
21:00 +10°C° 0.1 mm 1 mps 736 mmHg 83%
22:00 +9°C° 0.1 mm 2 mps 736 mmHg 85%
23:00 +8°C° 0 mm 2 mps 736 mmHg 87%

21 April, Wednesday

Time Temperature Precipitation Wind Pressure Humidity
00:00 +8°C° 0 mm 2 mps 735 mmHg 90%
01:00 +7°C° 0 mm 2 mps 735 mmHg 92%
02:00 +7°C° 0 mm 2 mps 735 mmHg 93%
03:00 +6°C° 0 mm 2 mps 735 mmHg 93%
04:00 +5°C° 0 mm 2 mps 735 mmHg 94%
05:00 +6°C° 0 mm 2 mps 735 mmHg 91%
06:00 +7°C° 0 mm 2 mps 735 mmHg 87%
07:00 +8°C° 0 mm 2 mps 736 mmHg 84%
08:00 +10°C° 0 mm 2 mps 736 mmHg 76%
09:00 +12°C° 0 mm 3 mps 736 mmHg 69%
10:00 +14°C° 0 mm 3 mps 736 mmHg 61%
11:00 +16°C° 0.1 mm 3 mps 736 mmHg 58%
12:00 +15°C° 0.1 mm 4 mps 735 mmHg 55%
13:00 +17°C° 0.1 mm 4 mps 735 mmHg 52%
14:00 +17°C° 0.2 mm 4 mps 735 mmHg 55%
15:00 +17°C° 0.2 mm 4 mps 735 mmHg 57%
16:00 +17°C° 0.2 mm 4 mps 735 mmHg 60%
17:00 +14°C° 0 mm 4 mps 735 mmHg 67%
18:00 +12°C° 0 mm 3 mps 735 mmHg 73%
19:00 +11°C° 0 mm 3 mps 735 mmHg 80%
20:00 +10°C° 0 mm 3 mps 736 mmHg 82%
21:00 +9°C° 0 mm 3 mps 736 mmHg 83%
22:00 +9°C° 0 mm 3 mps 736 mmHg 85%
23:00 +8°C° 0 mm 3 mps 736 mmHg 85%
Show more